N140JP KORL-KTEB

Flight info

Callsign N140JP
Flight time N/A
Altitude 45000
Route TOLLZ2 TOLLZ WORMS GUANO BKENI VIYAP Q87 GEARS SWNGR JAIKE4
Aircraft C750/M-SBDE3FGHRWXY/S

Departure

Time 2026-05-08 17:15
Airport Orlando Executive Airport (KORL)

Arrival

Time N/A
Airport Teterboro Airport (KTEB)
Time Latitude Longitude Altitude Speed Heading
2026-05-08 16:50 28.54804 -81.33831 118 ft 0 kts 36°
2026-05-08 17:07 28.54804 -81.33829 118 ft 0 kts 53°
2026-05-08 17:08 28.54803 -81.33827 118 ft 0 kts 88°
2026-05-08 17:08 28.54798 -81.33827 118 ft 1 kts 178°
2026-05-08 17:08 28.54760 -81.33824 115 ft 10 kts 159°
2026-05-08 17:08 28.54712 -81.33766 114 ft 10 kts 128°
2026-05-08 17:09 28.54668 -81.33709 115 ft 9 kts 132°
2026-05-08 17:09 28.54629 -81.33658 113 ft 8 kts 130°
2026-05-08 17:09 28.54584 -81.33598 113 ft 11 kts 131°
2026-05-08 17:09 28.54580 -81.33540 113 ft 8 kts 65°
2026-05-08 17:10 28.54605 -81.33475 113 ft 11 kts 66°
2026-05-08 17:10 28.54640 -81.33384 112 ft 14 kts 66°
2026-05-08 17:10 28.54682 -81.33274 114 ft 16 kts 66°
2026-05-08 17:10 28.54728 -81.33152 116 ft 18 kts 67°
2026-05-08 17:11 28.54784 -81.33007 114 ft 22 kts 66°
2026-05-08 17:11 28.54847 -81.32838 115 ft 23 kts 67°
2026-05-08 17:11 28.54912 -81.32669 114 ft 23 kts 66°
2026-05-08 17:11 28.54972 -81.32510 116 ft 20 kts 66°
2026-05-08 17:12 28.55025 -81.32372 119 ft 18 kts 67°
2026-05-08 17:12 28.55043 -81.32277 121 ft 8 kts 121°
2026-05-08 17:12 28.55003 -81.32260 121 ft 4 kts 172°
2026-05-08 17:12 28.54975 -81.32242 122 ft 8 kts 150°
2026-05-08 17:13 28.54935 -81.32226 120 ft 4 kts 199°
2026-05-08 17:13 28.54922 -81.32248 121 ft 3 kts 251°
2026-05-08 17:13 28.54921 -81.32251 121 ft 0 kts 246°
2026-05-08 17:13 28.54904 -81.32294 120 ft 0 kts 246°
2026-05-08 17:14 28.54869 -81.32386 121 ft 51 kts 247°
2026-05-08 17:14 28.54576 -81.33157 121 ft 147 kts 247°
2026-05-08 17:15 28.54132 -81.34281 589 ft 165 kts 247°
2026-05-08 17:15 28.53667 -81.35560 1015 ft 191 kts 250°
2026-05-08 17:15 28.53105 -81.37086 1382 ft 226 kts 246°
2026-05-08 17:15 28.52410 -81.38812 1904 ft 252 kts 246°
2026-05-08 17:16 28.51618 -81.40624 2811 ft 257 kts 242°
2026-05-08 17:16 28.50820 -81.42454 3895 ft 258 kts 245°
2026-05-08 17:16 28.50039 -81.44310 4871 ft 263 kts 249°
2026-05-08 17:16 28.49939 -81.46348 5684 ft 268 kts 284°
2026-05-08 17:17 28.50947 -81.48104 6586 ft 272 kts 319°
2026-05-08 17:17 28.52696 -81.48938 7446 ft 278 kts 347°
2026-05-08 17:17 28.54629 -81.49217 8430 ft 283 kts 352°
2026-05-08 17:17 28.56618 -81.49421 9360 ft 290 kts 353°
2026-05-08 17:18 28.58661 -81.49613 10192 ft 298 kts 353°
2026-05-08 17:18 28.60815 -81.49653 10442 ft 326 kts
2026-05-08 17:18 28.63139 -81.49019 10509 ft 357 kts 15°
2026-05-08 17:18 28.65516 -81.48106 10958 ft 368 kts 17°
2026-05-08 17:19 28.67968 -81.47284 11713 ft 369 kts 11°
2026-05-08 17:19 28.70495 -81.46666 12478 ft 372 kts
2026-05-08 17:19 28.73052 -81.46031 13233 ft 379 kts
2026-05-08 17:19 28.75615 -81.45270 13913 ft 384 kts 11°
2026-05-08 17:20 28.78214 -81.44489 14506 ft 387 kts 10°
2026-05-08 17:20 28.80841 -81.43767 15094 ft 391 kts
2026-05-08 17:20 28.83503 -81.43046 15705 ft 394 kts
2026-05-08 17:20 28.86186 -81.42284 16327 ft 399 kts
2026-05-08 17:21 28.88882 -81.41507 16948 ft 403 kts
2026-05-08 17:21 28.91620 -81.40737 17585 ft 407 kts
2026-05-08 17:21 28.94386 -81.39966 18242 ft 411 kts
2026-05-08 17:21 28.97182 -81.39176 18834 ft 415 kts
2026-05-08 17:22 29.00006 -81.38438 19408 ft 416 kts
2026-05-08 17:22 29.02879 -81.38220 20037 ft 411 kts 353°
2026-05-08 17:22 29.05719 -81.38452 20689 ft 410 kts 348°
2026-05-08 17:22 29.08568 -81.38738 21369 ft 413 kts 348°
2026-05-08 17:23 29.11484 -81.38762 21995 ft 424 kts 357°
2026-05-08 17:23 29.14442 -81.38493 22641 ft 427 kts 357°
2026-05-08 17:23 29.17422 -81.38257 23283 ft 430 kts 356°
2026-05-08 17:23 29.20421 -81.38047 23873 ft 433 kts 356°
2026-05-08 17:24 29.23444 -81.37814 24388 ft 438 kts 356°
2026-05-08 17:24 29.26453 -81.37563 24888 ft 442 kts 356°
2026-05-08 17:24 29.29529 -81.37315 25405 ft 445 kts 356°
2026-05-08 17:24 29.32635 -81.37078 25909 ft 449 kts 356°
2026-05-08 17:25 29.35767 -81.36835 26436 ft 453 kts 356°
2026-05-08 17:25 29.38933 -81.36582 26962 ft 458 kts 356°
2026-05-08 17:25 29.42124 -81.36326 27470 ft 462 kts 356°
2026-05-08 17:25 29.45342 -81.36073 27993 ft 466 kts 356°
2026-05-08 17:26 29.48590 -81.35819 28487 ft 470 kts 356°
2026-05-08 17:26 29.51867 -81.35559 28957 ft 474 kts 356°
2026-05-08 17:26 29.55170 -81.35296 29452 ft 478 kts 356°
2026-05-08 17:26 29.58504 -81.35032 29857 ft 483 kts 356°
2026-05-08 17:27 29.61867 -81.34767 30267 ft 486 kts 356°
2026-05-08 17:27 29.65237 -81.34676 30616 ft 482 kts 350°
2026-05-08 17:27 29.68588 -81.34888 31012 ft 483 kts 349°
2026-05-08 17:27 29.71943 -81.35064 31629 ft 481 kts 349°
2026-05-08 17:28 29.75279 -81.35219 32227 ft 479 kts 349°
2026-05-08 17:28 29.78607 -81.35403 32791 ft 477 kts 348°
2026-05-08 17:28 29.81912 -81.35601 33378 ft 475 kts 348°
2026-05-08 17:28 29.85179 -81.35781 34013 ft 473 kts 348°
2026-05-08 17:29 29.88453 -81.35948 34593 ft 470 kts 348°
2026-05-08 17:29 29.91707 -81.36124 35178 ft 466 kts 347°
2026-05-08 17:29 29.94938 -81.36309 35788 ft 463 kts 347°
2026-05-08 17:29 29.98149 -81.36488 36402 ft 461 kts 347°
2026-05-08 17:30 30.01348 -81.36660 37033 ft 458 kts 346°
2026-05-08 17:30 30.04519 -81.36832 37659 ft 455 kts 346°
2026-05-08 17:30 30.07667 -81.37007 38301 ft 451 kts 346°
2026-05-08 17:30 30.10795 -81.37181 38912 ft 449 kts 346°
2026-05-08 17:31 30.13908 -81.37351 39503 ft 445 kts 345°
2026-05-08 17:31 30.16982 -81.37519 40081 ft 441 kts 345°
2026-05-08 17:31 30.20039 -81.37689 40601 ft 439 kts 345°
2026-05-08 17:31 30.23081 -81.37859 41099 ft 437 kts 345°
2026-05-08 17:32 30.26109 -81.38026 41586 ft 435 kts 345°
2026-05-08 17:32 30.29130 -81.38192 42063 ft 433 kts 345°
2026-05-08 17:32 30.32129 -81.38358 42527 ft 431 kts 345°
2026-05-08 17:32 30.35083 -81.38522 42974 ft 429 kts 345°
2026-05-08 17:33 30.38058 -81.38687 43408 ft 427 kts 345°
2026-05-08 17:33 30.41014 -81.38851 43842 ft 425 kts 345°
2026-05-08 17:33 30.43971 -81.39015 44250 ft 424 kts 345°
2026-05-08 17:33 30.46912 -81.39178 44642 ft 422 kts 346°
2026-05-08 17:34 30.49836 -81.39339 44962 ft 419 kts 346°
2026-05-08 17:34 30.52756 -81.39503 45066 ft 423 kts 345°
2026-05-08 17:34 30.58722 -81.39845 45070 ft 436 kts 346°
2026-05-08 17:35 30.64861 -81.40180 45081 ft 447 kts 346°
2026-05-08 17:35 30.71161 -81.40534 45086 ft 459 kts 346°
2026-05-08 17:36 30.77599 -81.40889 45081 ft 466 kts 346°
2026-05-08 17:36 30.84061 -81.41249 45076 ft 468 kts 346°
2026-05-08 17:37 30.90560 -81.41611 45073 ft 467 kts 346°
2026-05-08 17:37 30.97039 -81.41976 45083 ft 466 kts 346°
2026-05-08 17:38 31.03523 -81.42339 45065 ft 466 kts 346°
2026-05-08 17:38 31.10011 -81.42704 45063 ft 466 kts 346°
2026-05-08 17:39 31.16497 -81.43069 45065 ft 466 kts 346°
2026-05-08 17:39 31.23019 -81.42997 45075 ft 482 kts 355°
2026-05-08 17:40 31.26362 -81.42292 45077 ft 496 kts
2026-05-08 17:40 31.29704 -81.41069 45073 ft 509 kts
2026-05-08 17:40 31.36236 -81.37589 45088 ft 516 kts 14°
2026-05-08 17:41 31.42759 -81.34072 45084 ft 517 kts 13°
2026-05-08 17:41 31.49282 -81.30514 45086 ft 516 kts 14°
2026-05-08 17:42 31.55801 -81.26974 45076 ft 516 kts 13°
2026-05-08 17:42 31.62267 -81.23445 45078 ft 515 kts 13°
2026-05-08 17:43 31.68775 -81.19897 45066 ft 516 kts 13°
2026-05-08 17:43 31.75288 -81.16333 45066 ft 516 kts 13°
2026-05-08 17:44 31.81810 -81.12765 45068 ft 517 kts 13°
2026-05-08 17:44 31.88338 -81.09183 45067 ft 517 kts 13°
2026-05-08 17:45 31.94819 -81.05624 45064 ft 517 kts 13°
2026-05-08 17:45 32.01334 -81.02038 45064 ft 517 kts 13°
2026-05-08 17:46 32.07863 -80.98378 45064 ft 521 kts 14°
2026-05-08 17:46 32.14421 -80.94707 45077 ft 522 kts 13°
2026-05-08 17:47 32.20991 -80.91024 45107 ft 522 kts 14°
2026-05-08 17:47 32.26436 -80.87962 45098 ft 519 kts 13°
2026-05-08 17:48 32.34038 -80.83696 45103 ft 522 kts 13°
2026-05-08 17:48 32.40599 -80.79991 45093 ft 523 kts 13°
2026-05-08 17:49 32.46058 -80.76914 45095 ft 522 kts 13°
2026-05-08 17:49 32.52620 -80.73204 45094 ft 522 kts 14°
2026-05-08 17:50 32.59193 -80.69487 45092 ft 523 kts 14°
2026-05-08 17:50 32.65764 -80.65758 45092 ft 523 kts 14°
2026-05-08 17:51 32.72336 -80.62026 45095 ft 523 kts 14°
2026-05-08 17:51 32.78869 -80.58113 45094 ft 526 kts 15°
2026-05-08 17:52 32.85363 -80.54262 45091 ft 521 kts 14°
2026-05-08 17:53 32.95111 -80.48452 45084 ft 524 kts 15°
2026-05-08 17:53 33.01640 -80.44571 45090 ft 524 kts 15°
2026-05-08 17:54 33.08161 -80.40666 45070 ft 524 kts 15°
2026-05-08 17:54 33.14685 -80.36765 45069 ft 524 kts 15°
2026-05-08 17:55 33.21204 -80.32855 45075 ft 524 kts 15°
2026-05-08 17:55 33.27706 -80.28950 45079 ft 524 kts 15°
2026-05-08 17:56 33.34212 -80.25035 45096 ft 522 kts 15°
2026-05-08 17:56 33.40671 -80.21143 45108 ft 520 kts 15°
2026-05-08 17:57 33.47122 -80.17253 45113 ft 522 kts 15°
2026-05-08 17:57 33.53607 -80.13327 45107 ft 522 kts 15°
2026-05-08 17:58 33.60091 -80.09402 45113 ft 520 kts 15°
2026-05-08 17:58 33.66527 -80.05495 45106 ft 518 kts 15°
2026-05-08 17:59 33.72986 -80.01578 45110 ft 520 kts 15°
2026-05-08 17:59 33.79438 -79.97643 45102 ft 519 kts 15°
2026-05-08 18:00 33.85886 -79.93717 45098 ft 517 kts 15°
2026-05-08 18:00 33.95481 -79.87859 45104 ft 518 kts 15°
2026-05-08 18:01 34.01917 -79.83912 45113 ft 518 kts 15°
2026-05-08 18:01 34.08349 -79.79972 45118 ft 518 kts 15°
2026-05-08 18:02 34.13684 -79.76693 45098 ft 518 kts 15°
2026-05-08 18:02 34.21187 -79.72078 45102 ft 518 kts 15°
2026-05-08 18:03 34.27606 -79.68121 45106 ft 518 kts 15°
2026-05-08 18:03 34.34031 -79.64155 45107 ft 517 kts 15°
2026-05-08 18:04 34.40404 -79.60211 45105 ft 518 kts 15°
2026-05-08 18:04 34.46827 -79.56232 45101 ft 518 kts 15°
2026-05-08 18:05 34.53250 -79.52245 45106 ft 518 kts 15°
2026-05-08 18:05 34.59622 -79.48059 45113 ft 522 kts 17°
2026-05-08 18:06 34.65974 -79.43782 45106 ft 522 kts 17°
2026-05-08 18:06 34.72327 -79.39506 45104 ft 523 kts 17°
2026-05-08 18:07 34.78649 -79.35218 45148 ft 523 kts 17°
2026-05-08 18:07 34.85036 -79.30898 45101 ft 525 kts 17°
2026-05-08 18:08 34.91426 -79.26551 45100 ft 525 kts 17°
2026-05-08 18:08 34.97804 -79.22218 45099 ft 525 kts 17°
2026-05-08 18:09 35.04191 -79.17864 45080 ft 527 kts 17°
2026-05-08 18:09 35.10603 -79.13488 45078 ft 528 kts 17°
2026-05-08 18:10 35.16974 -79.09128 45083 ft 528 kts 17°
2026-05-08 18:10 35.23391 -79.04733 45081 ft 527 kts 17°
2026-05-08 18:11 35.29805 -79.00333 45083 ft 530 kts 17°
2026-05-08 18:11 35.36226 -78.95912 45086 ft 530 kts 17°
2026-05-08 18:12 35.42676 -78.91472 45096 ft 530 kts 18°
2026-05-08 18:12 35.49059 -78.87065 45103 ft 530 kts 18°
2026-05-08 18:13 35.55488 -78.82620 45102 ft 530 kts 18°
2026-05-08 18:13 35.61926 -78.78160 45099 ft 531 kts 18°
2026-05-08 18:14 35.68354 -78.73697 45099 ft 530 kts 18°
2026-05-08 18:14 35.74800 -78.69218 45095 ft 533 kts 18°
2026-05-08 18:15 35.81247 -78.64720 45084 ft 532 kts 18°
2026-05-08 18:15 35.87654 -78.60252 45095 ft 532 kts 18°
2026-05-08 18:16 35.94094 -78.55747 45103 ft 532 kts 18°
2026-05-08 18:16 36.00559 -78.51220 45107 ft 535 kts 18°
2026-05-08 18:17 36.07027 -78.46675 45111 ft 534 kts 18°
2026-05-08 18:17 36.13489 -78.42133 45111 ft 534 kts 18°
2026-05-08 18:18 36.19955 -78.37575 45111 ft 536 kts 18°
2026-05-08 18:18 36.26449 -78.32991 45093 ft 537 kts 19°
2026-05-08 18:19 36.32896 -78.28428 45094 ft 537 kts 18°
2026-05-08 18:19 36.39208 -78.23263 45080 ft 556 kts 30°
2026-05-08 18:20 36.44891 -78.16597 45098 ft 563 kts 34°
2026-05-08 18:20 36.50592 -78.09932 45092 ft 562 kts 34°
2026-05-08 18:21 36.56263 -78.03233 45136 ft 562 kts 34°
2026-05-08 18:21 36.61921 -77.96559 45143 ft 562 kts 34°
2026-05-08 18:22 36.67607 -77.89831 45129 ft 562 kts 34°